This demonstration page uses our WeatherBlox Daily Observations layout. Learn more.

Left ArrowRight Arrow

Hourly Observations for April 30, 2022

Temp ( °F °C ) Dew Point ( °F °C ) Humidity (%) Winds ( mph kmh ) Pressure ( in mb ) Visibility ( mi km ) Precip ( " mm )
12:52 am 00:52 Cloudy 71 21.7 56 13.3 59 59 S 18 30 29.60 1002 10 16 0.00 0.00
1:52 am 01:52 Cloudy 63 17.2 54 12.2 73 73 NNW 21 33 29.69 1006 10 16 0.00 0.00
1:59 am 01:59 Cloudy 63 17.2 53 11.7 70 70 NNW 24 39 29.72 1006 10 16 0.00 0.00
2:25 am 02:25 Cloudy with Nearby Thunderstorms 60 15.6 53 11.7 78 78 NNW 22 35 29.75 1008 10 16 0.00 0.00
2:35 am 02:35 Cloudy with Thunderstorms 58 14.4 54 12.2 87 87 NNW 12 19 29.77 1008 9 14 0.00 0.00
2:50 am 02:50 Cloudy with Nearby Thunderstorms 57 14 55 13 94 94 N 14 22 29.75 1008 10 16 0.03 0.76
2:52 am 02:52 Cloudy with Nearby Thunderstorms 58 14.4 55 12.8 90 90 N 12 19 29.74 1007 10 16 0.04 1.02
3:07 am 03:07 Cloudy with Thunderstorms 58 14.4 56 13.3 93 93 ENE 10 17 29.74 1007 7 11 0.05 1.27
3:22 am 03:22 Cloudy with Nearby Thunderstorms 57 13.9 56 13.3 96 96 NE 15 24 29.70 1006 5 8 0.12 3.05
3:30 am 03:30 Cloudy with Rain 57 13.9 56 13.3 96 96 E 10 17 29.71 1006 7 11 0.16 4.06
3:52 am 03:52 Cloudy with Nearby Thunderstorms 57 13.9 56 13.3 96 96 E 7 11 29.71 1006 3 5 0.34 8.64
4:02 am 04:02 Cloudy with Strong Thunderstorms 57 13.9 56 13.3 96 96 E 10 17 29.73 1007 3 5 0.08 2.03
4:34 am 04:34 Mostly Cloudy with Nearby Thunderstorms 57 13.9 56 13.3 96 96 ESE 17 28 29.67 1005 9 14 0.28 7.11
4:48 am 04:48 Mostly Clear 57 14 55 13 94 94 ESE 20 31 29.65 1004 10 16 0.28 7.11
4:52 am 04:52 Mostly Clear 58 14.4 56 13.3 93 93 ESE 21 33 29.62 1003 10 16 0.28 7.11
5:52 am 05:52 Cloudy 58 14.4 56 13.3 93 93 SE 10 17 29.65 1004 10 16 0.00 0.00
6:52 am 06:52 Mostly Cloudy with Light Rain 59 15 56 13.3 90 90 SSE 14 22 29.66 1004 10 16 0.00 0.00
7:36 am 07:36 Cloudy with Thunderstorms 59 15 57 13.9 93 93 SSE 15 24 29.70 1006 7 11 0.02 0.51
7:40 am 07:40 Windy with Storms Likely 59 15 57 13.9 93 93 S 20 31 29.69 1005 2 3 0.02 0.51
7:48 am 07:48 Cloudy with Thunderstorms 59 15 57 14 94 94 S 8 13 29.69 1005 3 4 0.14 3.56
7:50 am 07:50 Cloudy with Light Rain 59 15 57 14 94 94 SSE 8 13 29.69 1005 6 10 0.14 3.56
7:52 am 07:52 Cloudy with Light Rain 59 15 57 13.9 93 93 S 6 9 29.67 1005 10 16 0.14 3.56
8:52 am 08:52 Cloudy 60 15.6 58 14.4 93 93 WSW 9 15 29.69 1005 10 16 0.00 0.00
9:15 am 09:15 Cloudy 60 15.6 58 14.4 93 93 WSW 10 17 29.70 1006 10 16 0.00 0.00
9:24 am 09:24 Cloudy 60 15.6 58 14.4 93 93 WSW 9 15 29.70 1006 10 16 0.00 0.00
9:33 am 09:33 Cloudy 61 16.1 59 15 93 93 W 6 9 29.70 1006 10 16 0.00 0.00
9:52 am 09:52 Cloudy 63 17.2 59 15 87 87 W 10 17 29.69 1005 10 16 0.00 0.00
10:17 am 10:17 Mostly Cloudy 64 17.8 56 13.3 75 75 W 13 20 29.70 1006 10 16 0.00 0.00
10:52 am 10:52 Sunny 67 19.4 55 12.8 66 66 WSW 15 24 29.70 1006 10 16 0.00 0.00
11:52 am 11:52 Sunny 68 20 52 11.1 57 57 W 22 35 29.71 1006 10 16 0.00 0.00
12:52 pm 12:52 Sunny 69 20.6 52 11.1 55 55 W 15 24 29.72 1007 10 16 0.00 0.00
1:52 pm 13:52 Sunny 70 21.1 51 10.6 51 51 W 16 26 29.73 1007 10 16 0.00 0.00
2:52 pm 14:52 Sunny 71 21.7 52 11.1 51 51 W 20 31 29.75 1008 10 16 0.00 0.00
3:52 pm 15:52 Sunny 71 21.7 49 9.4 46 46 WSW 21 33 29.76 1008 10 16 0.00 0.00
4:52 pm 16:52 Partly Cloudy 69 20.6 52 11.1 55 55 WNW 16 26 29.77 1008 10 16 0.00 0.00
5:52 pm 17:52 Mostly Sunny 67 19.4 50 10 55 55 W 16 26 29.79 1009 10 16 0.00 0.00
6:52 pm 18:52 Mostly Cloudy 66 18.9 50 10 56 56 WNW 14 22 29.81 1010 10 16 0.00 0.00
7:52 pm 19:52 Mostly Sunny 62 16.7 47 8.3 58 58 WNW 8 13 29.84 1011 10 16 0.00 0.00
8:52 pm 20:52 Clear 59 15 47 8.3 64 64 W 3 6 29.86 1011 10 16 0.00 0.00
9:52 pm 21:52 Clear 54 12.2 46 7.8 75 75 WSW 3 6 29.88 1012 10 16 0.00 0.00
10:52 pm 22:52 Clear 51 10.6 46 7.8 83 83 SSW 5 7 29.89 1012 10 16 0.00 0.00
11:52 pm 23:52 Clear 53 11.7 46 7.8 77 77 Calm 29.90 1012 10 16 0.00 0.00

Powered by AerisWeather